TimeEST,TemperatureF,Dew PointF,Humidity,Sea Level PressureIn,VisibilityMPH,Wind Direction,Wind SpeedMPH,Gust SpeedMPH,PrecipitationIn,Events,Conditions,WindDirDegrees,DateUTC
12:54 AM,28.9,19.9,69,30.15,10.0,NE,9.2,-,N/A,,Partly Cloudy,40,2012-11-07 05:54:00
1:08 AM,28.4,19.4,69,30.11,10.0,NE,10.4,-,N/A,,Mostly Cloudy,40,2012-11-07 06:08:00
1:54 AM,30.0,19.0,64,30.13,10.0,NE,9.2,18.4,N/A,,Overcast,40,2012-11-07 06:54:00
2:54 AM,30.0,19.9,66,30.14,10.0,NE,10.4,17.3,N/A,,Overcast,40,2012-11-07 07:54:00
3:54 AM,30.0,19.9,66,30.10,10.0,NNE,12.7,21.9,N/A,,Mostly Cloudy,30,2012-11-07 08:54:00
4:54 AM,30.0,19.9,66,30.08,10.0,NE,11.5,20.7,N/A,,Overcast,40,2012-11-07 09:54:00
5:54 AM,30.9,21.0,67,30.06,10.0,NE,13.8,26.5,N/A,,Overcast,40,2012-11-07 10:54:00
6:54 AM,30.9,21.0,67,30.05,10.0,NE,15.0,25.3,N/A,,Overcast,40,2012-11-07 11:54:00
7:54 AM,30.9,19.9,64,30.04,10.0,ENE,19.6,27.6,N/A,,Mostly Cloudy,60,2012-11-07 12:54:00
8:54 AM,30.9,19.9,64,30.03,10.0,NE,16.1,24.2,N/A,,Overcast,40,2012-11-07 13:54:00
9:54 AM,30.9,19.9,64,30.02,10.0,NE,16.1,31.1,N/A,,Overcast,40,2012-11-07 14:54:00
10:54 AM,32.0,19.9,61,30.01,10.0,NNE,18.4,25.3,N/A,,Overcast,30,2012-11-07 15:54:00
11:54 AM,32.0,19.9,61,29.95,10.0,NE,16.1,28.8,N/A,,Overcast,40,2012-11-07 16:54:00
12:54 PM,32.0,18.0,56,29.93,10.0,NNE,17.3,31.1,N/A,,Overcast,30,2012-11-07 17:54:00
1:54 PM,32.0,15.1,50,29.91,10.0,NE,17.3,29.9,0.00,,Overcast,40,2012-11-07 18:54:00
2:54 PM,30.9,17.1,57,29.89,3.0,NNE,16.1,36.8,0.00,Snow,Light Snow,30,2012-11-07 19:54:00
3:02 PM,30.2,17.6,60,29.85,2.0,NNE,20.7,32.2,0.00,Snow,Light Snow,30,2012-11-07 20:02:00
3:15 PM,30.2,19.4,64,29.86,1.2,NE,16.1,34.5,0.00,Snow,Light Snow,40,2012-11-07 20:15:00
3:34 PM,28.4,19.4,69,29.85,0.5,NE,23.0,33.4,0.00,Snow,Light Snow,40,2012-11-07 20:34:00
3:54 PM,27.0,23.0,85,29.89,0.5,NNE,13.8,29.9,0.00,Fog-Snow,Snow,30,2012-11-07 20:54:00
4:03 PM,26.6,23.0,86,29.85,0.2,NNE,17.3,27.6,0.01,Fog-Snow,Snow,30,2012-11-07 21:03:00
4:29 PM,26.6,23.0,86,29.83,0.5,NNE,18.4,39.1,0.04,Snow,Light Snow,20,2012-11-07 21:29:00
4:46 PM,26.6,23.0,86,29.83,0.5,NNE,13.8,28.8,0.05,Snow,Light Snow,30,2012-11-07 21:46:00
4:54 PM,27.0,23.0,85,29.87,0.5,NNE,17.3,26.5,0.06,Snow,Light Snow,30,2012-11-07 21:54:00
5:54 PM,27.0,24.1,89,29.88,0.5,NNE,17.3,31.1,0.04,Snow,Light Snow,30,2012-11-07 22:54:00
6:37 PM,26.6,24.8,93,29.83,0.5,NNE,16.1,35.7,0.06,Snow,Light Snow,30,2012-11-07 23:37:00
6:54 PM,28.0,24.1,85,29.86,0.5,NE,20.7,35.7,0.06,Snow,Light Snow,40,2012-11-07 23:54:00
7:01 PM,26.6,24.8,93,29.82,0.5,NNE,18.4,35.7,0.02,Snow,Light Snow,30,2012-11-08 00:01:00
7:54 PM,27.0,25.0,92,29.85,0.5,NNE,16.1,34.5,0.12,Fog-Snow,Snow,20,2012-11-08 00:54:00
8:37 PM,26.6,24.8,93,29.80,1.0,NNE,20.7,34.5,0.23,Snow,Light Snow,20,2012-11-08 01:37:00
8:44 PM,26.6,24.8,93,29.80,0.8,NNE,19.6,34.5,0.26,Snow,Light Snow,20,2012-11-08 01:44:00
8:54 PM,27.0,25.0,92,29.83,0.8,NNE,19.6,33.4,0.26,Snow,Light Snow,20,2012-11-08 01:54:00
9:03 PM,26.6,24.8,93,29.79,1.0,NNE,16.1,33.4,0.07,Snow,Light Snow,20,2012-11-08 02:03:00
9:14 PM,28.4,24.8,86,29.79,1.2,NNE,15.0,27.6,0.19,Snow,Light Snow,30,2012-11-08 02:14:00
9:34 PM,28.4,24.8,86,29.78,0.8,NNE,15.0,31.1,0.20,Snow,Light Snow,20,2012-11-08 02:34:00
9:46 PM,28.4,24.8,86,29.77,0.5,NNE,17.3,28.8,0.23,Fog-Snow,Snow,30,2012-11-08 02:46:00
9:54 PM,28.0,25.0,88,29.81,0.5,NNE,15.0,32.2,0.23,Fog-Snow,Snow,20,2012-11-08 02:54:00
10:14 PM,28.4,24.8,86,29.75,1.0,NNE,20.7,31.1,0.00,Snow,Light Snow,20,2012-11-08 03:14:00
10:29 PM,28.4,24.8,86,29.75,1.5,NNE,18.4,32.2,0.09,Snow,Light Snow,20,2012-11-08 03:29:00
10:39 PM,28.4,24.8,86,29.74,1.5,NNE,20.7,31.1,0.19,Snow,Light Snow,20,2012-11-08 03:39:00
10:54 PM,28.0,25.0,88,29.77,1.0,NNE,26.5,36.8,0.25,Snow,Light Snow,20,2012-11-08 03:54:00
11:02 PM,28.4,24.8,86,29.73,0.8,North,17.3,36.8,0.01,Snow,Light Snow,10,2012-11-08 04:02:00
11:17 PM,28.4,26.6,93,29.73,1.0,North,21.9,31.1,0.10,Snow,Light Snow,10,2012-11-08 04:17:00
11:42 PM,28.4,26.6,93,29.72,1.0,NNE,21.9,36.8,0.32,Snow,Light Snow,20,2012-11-08 04:42:00
11:54 PM,28.9,26.1,89,29.75,1.0,North,23.0,32.2,1.01,Snow,Light Snow,10,2012-11-08 04:54:00